Location: Esp�n
(42.4593°N, 0.2047°W)
Time: 07:22:12
(UTC+00:00)

Nadezhda 3 Rocket - Pass Details

Date: 07 June 2020
Orbit: 958 x 999 km, 82.9° (Epoch: 09 July)

Event Time Altitude Azimuth Distance (km) Brightness Sun altitude
Rises 02:11:06 0° 350° (N) 3,704 7.8 -18.1°
Reaches altitude 10° 02:13:37 10° 349° (N) 2,757 7.0 -17.8°
Maximum altitude 02:19:57 76° 265° (W) 1,025 4.0 -17.2°
Enters shadow 02:24:38 19° 182° (S) 2,158 5.3 -16.7°
